Location: Wells
(51.2093°N, 2.6446°W)
Time: 07:51:25
(UTC+01:00)

SO-50 - Pass Details

Date: 18 March 2026
Orbit: 567 x 673 km, 64.6° (Epoch: 17 April)

Event Time Altitude Azimuth Distance (km) Brightness Sun altitude
Rises 20:51:13 0° 288° (WNW) 2,996 ? -23.4°
Reaches altitude 10° 20:54:15 10° 308° (NW) 2,098 ? -23.8°
Maximum altitude 20:57:27 18° 350° (N) 1,659 ? -24.2°
Drops below altitude 10° 21:00:42 10° 33° (NNE) 2,115 ? -24.6°
Enters shadow 21:01:24 - 39° (NE) 2,302 ? -24.7°
